www.pogodaiklimat.ru

Погода и климат >> Архив погоды >> Италия >> Тревизо


ПОГОДА в Тревизо

  • Прогноз погоды в Тревизо
  • Монитор погоды в Тревизо

АРХИВ ПОГОДЫ в Тревизо

Время (UTC), дата Ветер
(напр.,м/с)
 
Видим.   Явления Облачность Т
(С)
Тd
(С)
f
(%)
Тe
(С)
Тes
(С)
Комфортность P
(гПа)
Po
(гПа)
Тmin
(С)
Tmax
(С)
R
(мм)
R24
(мм)
S
(см)
15 20.05 Ю 4 <100 м ясно +17.6 +12.9 74 +17 +23 1005.5 1003.4
18 20.05 Ю 3 25 км 9/9 1500 м
[Sc]
+16.0 +12.7 81 +16 +16 1006.1 1004.0 +17.9
21 20.05 Ю 2 <100 м ясно +14.9 +12.8 87 +15 +15 1006.8 1004.6
00 21.05 Ю 2 н/о н/о +13.9 +13.4 97 +13 +13 1006.9 1004.8 0.6
03 21.05 н/о н/о +13.5 +13.1 97 1006.7 1004.5
06 21.05 <100 м ясно +13.9 +12.6 92 1007.4 1005.3 +13.5 0.8
09 21.05 нст 1 <50 м 10/5 600 м
[Cu hum Ac und]
+15.5 +13.0 85 +16 +19 1008.6 1006.5
12 21.05 В 3 <50 м 10/5 600 м
[Cu hum Ac und]
+17.8 +13.1 74 +18 +20 1009.9 1007.7 0.2
15 21.05 12 км 9/9 1500 м
[Sc]
+18.9 +13.4 70 1010.6 1008.4
18 21.05 СВ 2 25 км 9/9 330 м
[Cu hum]
+16.6 +14.7 89 +17 +17 1011.2 1009.0 +18.9 0.2
21 21.05 СВ 2 25 км 9/9 1500 м
[Sc]
+15.4 +13.9 91 +15 +15 1012.8 1010.7
00 22.05 н/о н/о +14.7 +13.6 93 1012.7 1010.5
03 22.05 С 1 н/о н/о +14.5 +13.2 92 +15 +15 1012.7 1010.5
06 22.05 <100 м ясно +15.3 +13.2 87 1013.9 1011.8 +14.3
09 22.05 <100 м ясно +19.3 +14.3 73 1014.4 1012.2
12 22.05 Ю 2 <100 м ясно +21.3 +11.5 54 +23 +43 комфорт 1014.3 1012.1
15 22.05 ЮВ 2 20 км 6/6 1200 м
[Sc diur, vesp]
+21.0 +14.1 65 +25 +28 комфорт 1013.6 1011.5
18 22.05 В 2 20 км 5/5 1000 м
[Sc]
+18.6 +14.5 77 +20 +20 1014.2 1012.0 +21.8
21 22.05 СВ 1 25 км 5/5 1500 м
[Sc]
+16.6 +15.4 93 +17 +17 1015.9 1013.7
00 23.05 н/о н/о +16.7 +15.4 92 1016.1 1014.0
03 23.05 С 1 н/о н/о +15.5 +15.2 98 +16 +16 1015.9 1013.8
06 23.05 В 2 5000 м дымка 10/10 210 м
[St]
+16.2 +15.2 94 +16 +16 1016.3 1014.1 +15.3
09 23.05 15 км 5/5 420 м
[Cu hum]
+19.9 +15.0 73 1016.4 1014.3
12 23.05 нст 2 25 км 5/5 1080 м
[Cu med, cong]
+22.8 +13.4 55 +26 +36 жарко 1015.2 1013.1
15 23.05 Ю 2 <100 м ясно +23.5 +16.0 63 +27 +35 душно 1013.7 1011.5
18 23.05 ЮВ 3 <100 м ясно +21.5 +16.2 72 +25 +25 комфорт 1013.4 1011.2 +24.4
21 23.05 штиль 0 <100 м ясно +18.3 +15.9 86 +19 +19 1014.5 1012.3
00 24.05 н/о н/о +17.4 +17.0 97 1014.7 1012.5 2
03 24.05 н/о н/о +16.9 +16.8 99 1014.1 1012.0
06 24.05 СВ 2 <100 м ясно +17.6 +15.8 89 +18 +22 1014.8 1012.6 +16.4 4
09 24.05 Ю 2 <100 м ясно +21.6 +15.8 70 +25 +41 комфорт 1014.2 1012.1
12 24.05 ЮЗ 3 <100 м ясно +24.1 +16.1 61 +27 +44 жарко 1013.0 1010.9
15 24.05 Ю 3 25 км 1/1 900 м
[Cu med, cong Ci fib]
+24.0 +16.0 61 +27 +34 жарко 1011.6 1009.5
18 24.05 ЮВ 3 25 км 5/1 900 м
[Cu med, cong Ac trans Cc]
+21.6 +15.8 70 +25 +25 комфорт 1011.4 1009.2 +25.3
21 24.05 штиль 0 20 км 4/0
[Ac trans Cc]
+18.9 +15.8 82 +20 +20 1012.6 1010.5
00 25.05 СВ 2 н/о н/о +17.6 +16.2 91 +18 +18 1013.3 1011.1
03 25.05 С 2 н/о н/о +16.8 +15.9 94 +17 +17 1013.0 1010.8
06 25.05 СВ 2 8000 м дымка 5/1 900 м
[Cu hum Cc]
+18.1 +16.6 91 +19 +22 1013.9 1011.7 +16.6
09 25.05 20 км 6/4 600 м
[Cu med, cong Ci fib]
+22.0 +16.3 70 1014.8 1012.7
12 25.05 СВ 2 25 км 6/6 900 м
[Cu Sc Cc]
+22.5 +13.6 57 +26 +33 жарко 1014.5 1012.4
15 25.05 Ю 3 10 км 10/0
[Ac trans]
+22.7 +14.1 58 +26 +29 жарко 1013.4 1011.2
18 25.05 З 1 10 км 5/0
[Ac trans]
+20.9 +13.5 63 +25 +25 комфорт 1014.0 1011.9 +24.4
21 25.05 10 км 6/0
[Ac trans]
+18.4 +14.9 80 1014.8 1012.7
00 26.05 С 2 н/о н/о +17.1 +14.8 86 +18 +18 1014.5 1012.4
03 26.05 СВ 2 н/о н/о +16.3 +14.8 91 +17 +17 1014.5 1012.4
06 26.05 СВ 2 20 км 1/0
[Ci sp]
+17.7 +14.6 82 +18 +22 1015.2 1013.0 +16.2
09 26.05 СВ 3 25 км ясно +22.0 +14.4 62 +25 +38 комфорт 1015.1 1012.9
12 26.05 ЮВ 3 25 км 1/1 1200 м
[Cu hum]
+23.6 +14.9 58 +26 +40 жарко 1014.1 1012.0
15 26.05 ЮВ 4 10 км ясно +23.1 +11.6 48 +25 +31 комфорт 1013.9 1011.7
18 26.05 ЮВ 2 10 км ясно +20.3 +13.3 64 +23 +23 комфорт 1013.9 1011.7 +24.3
21 26.05 ЮВ 1 10 км ясно +19.3 +14.7 75 +22 +22 комфорт 1014.5 1012.3
00 27.05 ЮВ 2 н/о н/о +17.6 +16.1 91 +18 +18 1013.0 1010.9
03 27.05 ЮВ 3 н/о н/о +16.4 +15.8 96 +16 +16 1011.7 1009.6
06 27.05 В 2 н/о н/о +15.2 +14.8 97 +15 +15 1011.9 1009.8 +14.9 3
09 27.05 СВ 2 11 км слаб. дождь 10/3 60 м
[Sc]
+15.5 +14.6 94 +15 +20 1012.3 1010.2
12 27.05 С 3 11 км слаб. дождь 9/3 240 м
[Sc]
+15.4 +14.4 94 +15 +21 1011.5 1009.4 5

 

Местоположение метеостанции Тревизо (Италия): широта 45.65 долгота 12.18 высота над уровнем моря 23 м.

В архиве по умолчанию представлена погода в Тревизо за последнюю неделю. Архивные данные за месяц целиком и за предыдущие месяцы, начиная с января 2011 года, Вы можете получить, выбрав интересующий диапазон дат из раскрывающегося списка и нажав кнопку "Ввод!".


*Определитесь, кто Вы:
робот инопланетянин человек

Внимание! Время в таблицах - всемирное. Для получения местного времени необходимо прибавить поправку, которая равна 1 ч.

Смотрите также архив погоды в соседних городах и на ближайших метеорологических станциях:

Погода в Тревизо аэропорту (Италия) (7 км)
Погода в Венеции (Италия) (20 км)
Погода в Венеция аэропорту (Италия) (29 км)
Погода в Конкордия-Саджиттарии (Италия) (53 км)
Погода в Авиано (Италия) (53 км)
Погода на Базе ВВС Авиано (Италия) (54 км)
Погода на Базе ВВС Риволто (Италия) (75 км)
Погода на Пассо Ролле (Италия) (79 км)
Погода в Тренто (Италия) (92 км)
Погода в Ферраре (Италия) (101 км)

Пояснения к столбцам:

Ветер - указаны скорость ветра в м/с - средняя за 10 мин, порывы в срок и между сроками (в фигурных скобках) и направление, откуда дует ветер: С - северный, СВ - северо-восточный, В - восточный, ЮВ - юго-восточный, Ю - южный, ЮЗ - юго-западный, З - западный, СЗ - северо-западный.
Видимость - горизонтальная дальность видимости в метрах или километрах. При видимости от 1 до 10 км при отсутствии осадков обычно наблюдается дымка, при ухудшении видимости до 1 км и менее - туман. В сухую погоду видимость может ухудшаться дымом, пылью или мглою.
Явления - указаны атмосферные явления, наблюдавшиеся в срок или в последний час перед сроком; фигурными скобками обозначены явления, наблюдавшиеся между сроками (за 1-3 часа до срока); квадратными скобками обозначены град или гололедные отложения с указанием их диаметра в мм.
Облачность - указаны через наклонную черту общая и нижняя облачность в баллах и высота нижней границы облаков в метрах; квадратными скобками обозначены формы облаков: Ci - перистые, Cs - перисто-слоистые, Cc - перисто-кучевые, Ac - высококучевые, As - высокослоистые, Sc - слоисто-кучевые, Ns - слоисто-дождевые, Cu - кучевые, Cb - кучево-дождевые. Подробнее классификацию облаков см. в Атласе облаков (PDF).
T - Температура воздуха - температура, измеренная на высоте 2 м над землей.
Td - Температура точки росы - температура, при понижении до которой содержащийся в воздухе водяной пар достигнет насыщения.
f - Относительная влажность воздуха - влажноcть воздуха, измеренная на высоте 2 м над землей.
Te - Эффективная температура - температура, которую ощущает одетый по сезону человек в тени. Характеристика душности погоды. При расчете учитывается влияние влажности воздуха и скорости ветра на теплоощущения человека.
Tes - Эффективная температура на солнце - температура, которую ощущает человек, с поправкой на солнечный нагрев. Характеристика знойности погоды. Зависит от высоты солнца над горизонтом, облачности и скорости ветра. Ночью, в пасмурную погоду, а также при ветре 12 м/с и более поправка равна нулю.
P - Атмосферное давление - приведенное к уровню моря атмосферное давление.
Po - Атмосферное давление - измеренное на уровне метеостанции атмосферное давление.
Tmin - Минимальная температура - минимум температуры воздуха на высоте 2 м над землей.
Tmax - Максимальная температура - максимум температуры воздуха на высоте 2 м над землей.
R - Количество осадков - Количество выпавших осадков за период времени, мм. При наведении курсора мыши на число - период времени, за который выпало указанное количество осадков.
R24 - Количество осадков - Количество выпавших осадков за 24 часа, мм.
S - Снежный покров - Высота снежного покрова, см. При наведении курсора мыши на число - состояние снежного покрова и степень покрытия местности в баллах.